#timestamp,LO_Frequency,Hit,StdDev 
1676631615.1,286047000.9,N
1676631635.9,286046999.3,N
1676631655.7,286046999.9,N
1676631675.6,286046998.4,N
1676631695.4,286046998.4,N
1676631715.2,286046999.6,N
1676631735.1,286046996.3,N
1676631736.0,286046996.3,N
1676631755.8,286046996.1,N
1676631775.7,286046997.2,N
1676631795.5,286046999.3,N
1676631815.3,286046998.7,N
1676631835.2,286046999.3,N
1676631855.0,286046996.9,N
1676631855.9,286046996.9,N
1676631875.8,286046996.7,N
1676631895.6,286046997.1,N
1676631915.4,286046997.4,N
1676631935.3,286046996.3,N
1676631955.1,286046995.6,N
1676631975.9,286046997.4,N
1676631995.7,286046999.2,N
1676632015.5,286046998.3,N
1676632035.4,286046998.5,N
1676632055.2,286047001.2,N
1676632075.0,286046999.3,N
1676632076.0,286046999.3,N
1676632095.8,286046999.3,N
1676632115.6,286046998.1,N
1676632135.5,286046998.6,N
1676632155.3,286046997.4,N
1676632175.1,286046996.1,N
1676632195.9,286046996.0,N
1676632215.7,286046997.6,N
1676632235.6,286046994.9,Y
1676632255.4,286046996.0,P
1676632275.2,286046995.3,P
1676632295.1,286046995.1,P
1676632296.0,286046995.1,Y
1676632315.8,286047001.6,P
1676632335.7,286047003.6,N
1676632355.5,286047004.3,N
1676632375.3,286047001.7,N
1676632395.2,286047001.8,N
1676632415.0,286047002.7,N
1676632415.9,286047002.7,N
1676632435.8,286047002.5,N
1676632455.6,286047002.8,N
1676632475.4,286047003.9,N
1676632495.3,286047002.2,N
1676632515.1,286047003.6,N
1676632516.0,286047003.6,N
1676632535.8,286047005.6,N
1676632555.7,286047004.9,N
1676632575.5,286047006.4,Y
1676632595.4,286047004.8,P
1676632615.2,286047007.4,P
1676632635.0,286047006.4,P
1676632635.9,286047006.4,Y
1676632655.8,286047000.2,P
1676632675.6,286046999.7,N
1676632695.5,286047000.1,N
1676632715.3,286047000.8,N
1676632735.1,286047000.7,N
1676632755.9,286046998.7,N
1676632775.7,286046996.9,N
1676632795.5,286046996.7,N
1676632815.4,286047001.1,N
1676632835.2,286047002.7,N
1676632855.1,286047001.3,N
1676632856.0,286047001.3,N
1676632875.8,286047002.6,N
1676632895.7,286047001.6,N
1676632915.5,286047000.4,N
1676632935.3,286047000.5,N
1676632955.2,286047000.2,N
1676632975.0,286047002.2,N
1676632975.9,286047002.2,N
1676632995.7,286047000.2,N
1676633015.6,286046997.4,N
1676633035.4,286046995.7,N
1676633055.3,286046996.8,N
1676633075.1,286046998.4,N
1676633076.0,286046998.4,N
1676633095.8,286047000.7,N
1676633115.7,286046999.9,N
1676633135.5,286046998.7,N
1676633155.4,286046997.5,N
1676633175.2,286046998.1,N
1676633195.0,286047000.7,N
1676633195.9,286047000.7,N
1676633215.8,286046996.5,N
1676633235.6,286046997.0,N
1676633255.4,286047000.8,N
1676633275.3,286046998.5,N
1676633295.1,286046996.6,N
1676633315.9,286046996.8,N
1676633335.7,286046998.5,N
1676633355.5,286046999.6,N
1676633375.4,286046998.5,N
1676633395.2,286046998.6,N
1676633415.0,286046999.4,N
1676633416.0,286046999.4,N
1676633435.8,286046997.0,N
1676633455.6,286046997.7,N
1676633475.5,286046994.9,Y
1676633525.3,286046996.7,E
1676633535.3,286046999.2,N
1676633555.1,286046999.9,P
1676633556.0,286046999.9,N
1676633575.8,286047002.3,Y
1676633595.7,286047004.0,P
1676633615.5,286047001.9,N
1676633635.3,286047004.3,N
1676633655.2,286047003.2,N
1676633675.0,286047006.7,Y
1676633675.9,286047006.7,P
1676633695.8,286047002.5,N
1676633715.6,286047000.4,N
1676633735.4,286047002.7,N
1676633755.3,286047000.6,N
1676633775.1,286047002.3,N
1676633795.9,286047000.8,N
1676633815.7,286047000.4,N
1676633835.5,286046999.9,N
1676633855.4,286047000.3,N
1676633875.2,286046998.4,N
1676633895.0,286047000.8,N
1676633895.9,286047000.8,N
1676633915.8,286046998.1,N
1676633935.6,286047002.5,N
1676633955.5,286047004.3,N
1676633975.3,286046999.7,N
1676633995.1,286047000.5,N
1676634045.9,286047000.7,E
1676634055.8,286046999.8,N
1676634075.7,286047000.4,P
1676634095.5,286046998.9,P
1676634115.3,286046999.4,N
1676634135.2,286046996.7,Y
1676634155.0,286046999.6,P
1676634155.9,286046999.6,P
1676634175.7,286046999.5,P
1676634195.6,286046998.5,Y
1676634215.4,286047000.9,P
1676634235.3,286046999.9,N
1676634255.1,286047000.5,N
1676634275.8,286047000.5,N
1676634295.7,286047001.8,Y
1676634315.5,286047002.5,P
1676634335.4,286047003.7,P
1676634355.2,286047001.8,N
1676634375.0,286047003.5,N
1676634375.9,286047003.5,N
1676634395.8,286047000.9,N
1676634415.6,286046998.8,N
1676634435.4,286046999.0,N
1676634455.3,286047000.8,N
1676634475.1,286047002.7,N
1676634495.9,286047003.8,N
1676634515.7,286047002.5,N
1676634535.5,286047002.0,N
1676634555.4,286046999.6,N
1676634575.2,286046999.6,N
1676634595.1,286046999.1,N
1676634596.0,286046999.1,N
1676634615.8,286047000.9,N
1676634635.6,286047000.6,N
1676634655.5,286047001.1,N
1676634675.3,286046998.9,N
1676634695.1,286046998.1,N
1676634715.9,286047002.6,N
1676634735.7,286046998.2,N
1676634755.6,286047002.1,N
1676634775.4,286047002.6,N
1676634795.2,286047000.5,N
1676634815.1,286047002.7,N
1676634816.0,286047002.7,N
1676634835.8,286047000.7,N
1676634855.7,286047001.5,N
1676634875.5,286047000.1,N
1676634895.3,286047000.2,N
1676634915.2,286047000.9,N
1676634935.0,286046996.5,N
1676634935.9,286046996.5,N
1676634955.8,286046998.8,N
1676634975.6,286046998.6,N
1676634995.4,286046998.8,N
1676635015.3,286047002.2,N
1676635035.1,286047000.8,N
1676635055.9,286046998.1,N
1676635075.7,286047000.4,N
1676635095.5,286046998.7,N
1676635115.4,286046999.4,N
1676635135.2,286046999.5,N
1676635155.0,286046998.0,N
1676635155.9,286046998.0,N
1676635175.8,286046995.2,N
1676635195.6,286046998.8,N
